| time (UTC) | temp F | wind direction | speed knots | gust knots | rain 1hr in | rain 24hr in | rain mn in | humidity % | barometer mb |
| 20260904030156 | 86 | 158 | 5.2 | 11.3 | 0.00 | 0.07 | 0.07 | 61 | 1009.6 |
| 20260904025655 | 86 | 173 | 3.5 | 10.4 | 0.00 | 0.07 | 0.07 | 62 | 1009.6 |
| 20260904024655 | 86 | 123 | 3.5 | 7.8 | 0.00 | 0.07 | 0.07 | 62 | 1009.6 |
| 20260904024153 | 87 | 178 | 3.5 | 8.7 | 0.00 | 0.07 | 0.07 | 62 | 1009.6 |
| 20260904023153 | 87 | 147 | 3.5 | 10.4 | 0.00 | 0.07 | 0.07 | 61 | 1009.5 |
| 20260904022653 | 87 | 178 | 3.5 | 10.4 | 0.00 | 0.07 | 0.07 | 61 | 1009.5 |
| 20260904022155 | 87 | 187 | 4.3 | 9.6 | 0.00 | 0.07 | 0.07 | 61 | 1009.5 |
| 20260904021653 | 87 | 124 | 4.3 | 8.7 | 0.00 | 0.07 | 0.07 | 61 | 1009.5 |
| 20260904021153 | 87 | 141 | 4.3 | 8.7 | 0.00 | 0.07 | 0.07 | 61 | 1009.4 |
| 20260904020653 | 87 | 177 | 3.5 | 8.7 | 0.00 | 0.07 | 0.07 | 61 | 1009.3 |
| 20260904015653 | 88 | 177 | 2.6 | 8.7 | 0.00 | 0.07 | 0.07 | 60 | 1009.4 |
| 20260904014652 | 88 | 148 | 2.6 | 9.6 | 0.00 | 0.07 | 0.07 | 59 | 1009.3 |
| 20260904014152 | 88 | 188 | 3.5 | 9.6 | 0.00 | 0.07 | 0.07 | 59 | 1009.1 |
| 20260904013651 | 88 | 142 | 3.5 | 7.8 | 0.00 | 0.07 | 0.07 | 59 | 1009.1 |
| 20260904013152 | 89 | 165 | 3.5 | 8.7 | 0.00 | 0.07 | 0.07 | 59 | 1009.0 |
| 20260904012152 | 89 | 178 | 2.6 | 10.4 | 0.00 | 0.07 | 0.07 | 58 | 1009.0 |
| 20260904011651 | 89 | 153 | 2.6 | 10.4 | 0.00 | 0.07 | 0.07 | 58 | 1008.9 |
| 20260904011151 | 89 | 144 | 3.5 | 12.2 | 0.00 | 0.07 | 0.07 | 58 | 1008.8 |
| 20260904010650 | 90 | 131 | 4.3 | 12.2 | 0.00 | 0.07 | 0.07 | 58 | 1008.7 |
| 20260904010150 | 90 | 128 | 3.5 | 10.4 | 0.00 | 0.07 | 0.07 | 58 | 1008.7 |
| 20260904005650 | 90 | 178 | 5.2 | 9.6 | 0.00 | 0.07 | 0.07 | 58 | 1008.7 |
| 20260904005151 | 90 | 146 | 4.3 | 9.6 | 0.00 | 0.07 | 0.07 | 58 | 1008.7 |
| 20260904004150 | 91 | 140 | 2.6 | 7.8 | 0.00 | 0.07 | 0.07 | 57 | 1008.5 |
| 20260904003650 | 91 | 210 | 2.6 | 10.4 | 0.00 | 0.07 | 0.07 | 56 | 1008.4 |
| 20260904003149 | 91 | 138 | 3.5 | 10.4 | 0.00 | 0.07 | 0.07 | 56 | 1008.4 |
| 20260904002650 | 92 | 212 | 3.5 | 8.7 | 0.00 | 0.07 | 0.07 | 55 | 1008.4 |
| 20260904001649 | 92 | 175 | 5.2 | 10.4 | 0.00 | 0.07 | 0.07 | 54 | 1008.4 |
| 20260904001149 | 92 | 166 | 4.3 | 10.4 | 0.00 | 0.07 | 0.07 | 54 | 1008.3 |
| 20260904000650 | 92 | 138 | 4.3 | 10.4 | 0.00 | 0.07 | 0.07 | 54 | 1008.4 |
| 20260903235649 | 93 | 162 | 6.1 | 13.9 | 0.00 | 0.07 | 0.07 | 53 | 1008.3 |
| 20260903235149 | 93 | 187 | 3.5 | 10.4 | 0.00 | 0.07 | 0.07 | 53 | 1008.3 |
| 20260903234648 | 93 | 165 | 6.1 | 13.9 | 0.00 | 0.07 | 0.07 | 52 | 1008.3 |
| 20260903234148 | 93 | 178 | 7.0 | 13.9 | 0.00 | 0.07 | 0.07 | 52 | 1008.3 |
| 20260903233148 | 94 | 163 | 6.1 | 11.3 | 0.00 | 0.07 | 0.07 | 52 | 1008.2 |
| 20260903232648 | 94 | 171 | 3.5 | 8.7 | 0.00 | 0.07 | 0.07 | 53 | 1008.3 |
| 20260903232149 | 94 | 182 | 4.3 | 10.4 | 0.00 | 0.07 | 0.07 | 52 | 1008.2 |
| 20260903231643 | 94 | 177 | 6.1 | 13.0 | 0.00 | 0.07 | 0.07 | 51 | 1008.1 |
| 20260903231144 | 94 | 166 | 8.7 | 13.9 | 0.00 | 0.07 | 0.07 | 51 | 1008.1 |
| 20260903230643 | 94 | 144 | 7.0 | 13.9 | 0.00 | 0.07 | 0.07 | 51 | 1008.2 |
| 20260903230143 | 94 | 186 | 7.0 | 14.8 | 0.00 | 0.07 | 0.07 | 51 | 1008.2 |
| 20260903225142 | 95 | 171 | 5.2 | 10.4 | 0.00 | 0.07 | 0.07 | 52 | 1008.1 |
| 20260903224642 | 95 | 226 | 4.3 | 9.6 | 0.00 | 0.07 | 0.07 | 52 | 1008.1 |
| 20260903224141 | 95 | 171 | 4.3 | 9.6 | 0.00 | 0.07 | 0.07 | 53 | 1008.1 |
| 20260903223641 | 95 | 201 | 4.3 | 12.2 | 0.00 | 0.07 | 0.07 | 53 | 1008.1 |
| 20260903222641 | 95 | 178 | 5.2 | 10.4 | 0.00 | 0.07 | 0.07 | 53 | 1008.1 |
| 20260903222142 | 95 | 173 | 4.3 | 11.3 | 0.00 | 0.07 | 0.07 | 53 | 1008.1 |
| 20260903221641 | 95 | 208 | 7.8 | 11.3 | 0.00 | 0.07 | 0.07 | 52 | 1008.1 |
| 20260903221140 | 95 | 200 | 6.1 | 15.6 | 0.00 | 0.07 | 0.07 | 53 | 1008.1 |
| 20260903220640 | 95 | 161 | 4.3 | 15.6 | 0.00 | 0.07 | 0.07 | 52 | 1008.2 |
| 20260903215639 | 95 | 182 | 6.1 | 14.8 | 0.00 | 0.07 | 0.07 | 52 | 1008.1 |
| 20260903215139 | 95 | 160 | 8.7 | 14.8 | 0.00 | 0.07 | 0.07 | 51 | 1008.3 |
| 20260903214638 | 96 | 155 | 6.1 | 13.0 | 0.00 | 0.07 | 0.07 | 52 | 1008.0 |
| 20260903214139 | 96 | 203 | 5.2 | 10.4 | 0.00 | 0.07 | 0.07 | 52 | 1008.1 |
| 20260903213638 | 96 | 207 | 5.2 | 10.4 | 0.00 | 0.07 | 0.07 | 51 | 1008.1 |
| 20260903212637 | 96 | 128 | 7.0 | 13.9 | 0.00 | 0.07 | 0.07 | 51 | 1008.1 |
| 20260903212138 | 96 | 202 | 7.8 | 16.5 | 0.00 | 0.07 | 0.07 | 50 | 1008.1 |
| 20260903211636 | 96 | 209 | 6.1 | 16.5 | 0.00 | 0.07 | 0.07 | 49 | 1008.1 |
| 20260903211136 | 96 | 126 | 9.6 | 16.5 | 0.00 | 0.07 | 0.07 | 49 | 1008.1 |
| 20260903210136 | 95 | 187 | 7.0 | 14.8 | 0.00 | 0.07 | 0.07 | 50 | 1008.2 |
| 20260903205636 | 95 | 229 | 5.2 | 13.9 | 0.00 | 0.07 | 0.07 | 51 | 1008.3 |
| 20260903205135 | 95 | 155 | 6.1 | 13.9 | 0.00 | 0.07 | 0.07 | 51 | 1008.1 |
| 20260903204636 | 95 | 193 | 7.0 | 13.0 | 0.00 | 0.07 | 0.07 | 50 | 1008.3 |
| 20260903204136 | 96 | 167 | 7.0 | 13.0 | 0.00 | 0.07 | 0.07 | 51 | 1008.3 |
| 20260903203634 | 96 | 183 | 7.0 | 11.3 | 0.00 | 0.07 | 0.07 | 52 | 1008.4 |
| 20260903203135 | 96 | 75 | 7.0 | 11.3 | 0.00 | 0.07 | 0.07 | 51 | 1008.4 |
| 20260903202634 | 96 | 185 | 4.3 | 13.9 | 0.00 | 0.07 | 0.07 | 51 | 1008.4 |
| 20260903202136 | 95 | 162 | 7.0 | 13.9 | 0.00 | 0.07 | 0.07 | 51 | 1008.6 |
| 20260903201634 | 95 | 198 | 7.8 | 13.9 | 0.00 | 0.07 | 0.07 | 50 | 1008.6 |
| 20260903201134 | 95 | 193 | 5.2 | 12.2 | 0.00 | 0.07 | 0.07 | 52 | 1008.7 |
| 20260903200634 | 94 | 182 | 6.1 | 12.2 | 0.00 | 0.07 | 0.07 | 53 | 1008.7 |
| 20260903200133 | 94 | 205 | 6.1 | 15.6 | 0.00 | 0.07 | 0.07 | 55 | 1008.7 |
| 20260903195633 | 94 | 198 | 4.3 | 15.6 | 0.00 | 0.07 | 0.07 | 55 | 1008.8 |
| 20260903195134 | 94 | 223 | 6.1 | 16.5 | 0.00 | 0.07 | 0.07 | 56 | 1008.8 |
| 20260903194633 | 94 | 190 | 8.7 | 16.5 | 0.00 | 0.07 | 0.07 | 55 | 1008.8 |
| 20260903194133 | 93 | 140 | 6.1 | 11.3 | 0.00 | 0.07 | 0.07 | 56 | 1009.0 |
| 20260903193633 | 93 | 207 | 4.3 | 12.2 | 0.00 | 0.07 | 0.07 | 57 | 1009.0 |
| 20260903193132 | 93 | 195 | 5.2 | 12.2 | 0.00 | 0.07 | 0.07 | 57 | 1009.1 |
| 20260903192632 | 93 | 156 | 4.3 | 12.2 | 0.00 | 0.07 | 0.07 | 57 | 1009.1 |
| 20260903192134 | 93 | 162 | 5.2 | 13.0 | 0.00 | 0.07 | 0.07 | 58 | 1009.0 |
| 20260903191632 | 92 | 178 | 6.1 | 13.0 | 0.00 | 0.07 | 0.07 | 57 | 1009.0 |
| 20260903190632 | 92 | 153 | 6.1 | 13.9 | 0.00 | 0.07 | 0.07 | 58 | 1009.1 |
| 20260903190131 | 92 | 169 | 7.0 | 13.0 | 0.00 | 0.07 | 0.07 | 58 | 1009.3 |
| 20260903185631 | 92 | 154 | 4.3 | 11.3 | 0.00 | 0.07 | 0.07 | 58 | 1009.4 |
| 20260903184630 | 91 | 147 | 5.2 | 12.2 | 0.00 | 0.07 | 0.07 | 58 | 1009.4 |
| 20260903184130 | 91 | 189 | 6.1 | 13.9 | 0.00 | 0.07 | 0.07 | 58 | 1009.7 |
| 20260903183630 | 91 | 162 | 6.1 | 13.9 | 0.00 | 0.07 | 0.07 | 59 | 1009.7 |
| 20260903183130 | 91 | 151 | 5.2 | 11.3 | 0.00 | 0.07 | 0.07 | 58 | 1009.7 |
| 20260903182630 | 91 | 195 | 5.2 | 10.4 | 0.00 | 0.07 | 0.07 | 60 | 1009.8 |
| 20260903182132 | 91 | 187 | 4.3 | 10.4 | 0.00 | 0.07 | 0.07 | 60 | 1009.8 |
| 20260903181630 | 91 | 195 | 6.1 | 10.4 | 0.00 | 0.07 | 0.07 | 58 | 1010.0 |
| 20260903181129 | 91 | 126 | 6.1 | 11.3 | 0.00 | 0.07 | 0.07 | 57 | 1009.9 |
| 20260903180129 | 90 | 196 | 5.2 | 12.2 | 0.00 | 0.07 | 0.07 | 59 | 1010.3 |
| 20260903175628 | 90 | 217 | 4.3 | 14.8 | 0.00 | 0.07 | 0.07 | 58 | 1010.4 |
| 20260903175129 | 90 | 182 | 7.0 | 14.8 | 0.00 | 0.07 | 0.07 | 58 | 1010.3 |
| 20260903174628 | 90 | 135 | 5.2 | 9.6 | 0.00 | 0.07 | 0.07 | 59 | 1010.3 |
| 20260903172628 | 88 | 187 | 4.3 | 11.3 | 0.00 | 0.07 | 0.07 | 62 | 1010.4 |
| 20260903172129 | 88 | 195 | 5.2 | 10.4 | 0.00 | 0.07 | 0.07 | 61 | 1010.2 |
| 20260903171127 | 87 | 147 | 4.3 | 10.4 | 0.00 | 0.07 | 0.07 | 64 | 1010.3 |
| 20260903170627 | 87 | 175 | 5.2 | 9.6 | 0.00 | 0.07 | 0.07 | 65 | 1010.3 |
| 20260903170126 | 86 | 225 | 4.3 | 8.7 | 0.00 | 0.07 | 0.07 | 67 | 1010.4 |
| 20260903165626 | 85 | 189 | 4.3 | 8.7 | 0.00 | 0.07 | 0.07 | 68 | 1010.4 |
| 20260903165125 | 84 | 186 | 5.2 | 8.7 | 0.00 | 0.07 | 0.07 | 69 | 1010.5 |
| 20260903164626 | 83 | 123 | 3.5 | 7.8 | 0.00 | 0.07 | 0.07 | 71 | 1010.5 |
| 20260903164126 | 83 | 137 | 3.5 | 7.8 | 0.00 | 0.07 | 0.07 | 70 | 1010.6 |
| 20260903163626 | 83 | 178 | 3.5 | 8.7 | 0.00 | 0.07 | 0.07 | 69 | 1010.6 |
| 20260903163126 | 83 | 135 | 4.3 | 9.6 | 0.00 | 0.07 | 0.07 | 68 | 1010.6 |
| 20260903162625 | 83 | 178 | 3.5 | 6.1 | 0.00 | 0.07 | 0.07 | 69 | 1010.6 |
| 20260903162126 | 83 | 175 | 2.6 | 7.8 | 0.00 | 0.07 | 0.07 | 70 | 1010.8 |
| 20260903161124 | 82 | 144 | 3.5 | 7.8 | 0.00 | 0.07 | 0.07 | 70 | 1010.5 |
| 20260903160625 | 82 | 128 | 3.5 | 7.8 | 0.00 | 0.07 | 0.07 | 70 | 1010.6 |
| 20260903160124 | 82 | 128 | 3.5 | 7.0 | 0.00 | 0.07 | 0.07 | 70 | 1010.5 |
| 20260903155624 | 82 | 178 | 1.7 | 7.8 | 0.00 | 0.07 | 0.07 | 70 | 1010.5 |
| 20260903155123 | 82 | 137 | 3.5 | 7.8 | 0.00 | 0.07 | 0.07 | 70 | 1010.5 |
| 20260903154624 | 82 | 118 | 3.5 | 7.0 | 0.00 | 0.07 | 0.07 | 71 | 1010.5 |
| 20260903154123 | 81 | 51 | 2.6 | 9.6 | 0.00 | 0.07 | 0.07 | 71 | 1010.5 |
| 20260903153123 | 81 | 165 | 5.2 | 8.7 | 0.00 | 0.07 | 0.07 | 72 | 1010.4 |
| 20260903152622 | 81 | 178 | 3.5 | 8.7 | 0.00 | 0.07 | 0.07 | 73 | 1010.6 |
| 20260903152125 | 81 | 160 | 5.2 | 10.4 | 0.00 | 0.07 | 0.07 | 73 | 1010.5 |
| 20260903151622 | 81 | 129 | 3.5 | 10.4 | 0.00 | 0.07 | 0.07 | 72 | 1010.5 |
| 20260903150622 | 80 | 130 | 5.2 | 8.7 | 0.01 | 0.07 | 0.07 | 75 | 1010.6 |
| 20260903145621 | 80 | 108 | 1.7 | 4.3 | 0.01 | 0.07 | 0.07 | 78 | 1010.7 |
| 20260903145121 | 80 | 126 | 1.7 | 2.6 | 0.01 | 0.07 | 0.07 | 77 | 1010.9 |
| 20260903144620 | 80 | 51 | 0.9 | 1.7 | 0.01 | 0.07 | 0.07 | 78 | 1011.1 |
| 20260903144121 | 80 | 239 | 0.9 | 3.5 | 0.01 | 0.07 | 0.07 | 77 | 1011.1 |
| 20260903143621 | 79 | 129 | 0.9 | 4.3 | 0.01 | 0.07 | 0.07 | 76 | 1010.9 |
| 20260903143121 | 79 | 51 | 0.9 | 4.3 | 0.01 | 0.07 | 0.07 | 77 | 1010.7 |
| 20260903142620 | 79 | 134 | 1.7 | 6.1 | 0.01 | 0.07 | 0.07 | 77 | 1010.6 |
| 20260903142119 | 79 | 137 | 2.6 | 7.8 | 0.01 | 0.07 | 0.07 | 76 | 1010.5 |
| 20260903141618 | 80 | 51 | 1.7 | 7.8 | 0.01 | 0.07 | 0.07 | 75 | 1010.5 |
| 20260903141119 | 80 | 156 | 3.5 | 7.0 | 0.01 | 0.07 | 0.07 | 75 | 1010.5 |
| 20260903140617 | 79 | 192 | 3.5 | 7.8 | 0.00 | 0.06 | 0.06 | 77 | 1010.4 |
| 20260903140117 | 79 | 221 | 3.5 | 7.8 | 0.00 | 0.06 | 0.06 | 79 | 1010.3 |
| 20260903135617 | 78 | 163 | 2.6 | 6.1 | 0.00 | 0.06 | 0.06 | 82 | 1010.3 |
| 20260903135117 | 78 | 157 | 1.7 | 3.5 | 0.01 | 0.06 | 0.06 | 84 | 1010.4 |
| 20260903134616 | 76 | 205 | 0.9 | 3.5 | 0.01 | 0.06 | 0.06 | 86 | 1010.3 |
| 20260903134116 | 76 | 51 | 0.9 | 3.5 | 0.03 | 0.06 | 0.06 | 86 | 1010.2 |
| 20260903133616 | 75 | 165 | 0.9 | 3.5 | 0.03 | 0.06 | 0.06 | 86 | 1010.3 |
| 20260903133117 | 75 | 142 | 1.7 | 3.5 | 0.04 | 0.06 | 0.06 | 86 | 1010.3 |
| 20260903132616 | 75 | 131 | 1.7 | 5.2 | 0.05 | 0.06 | 0.06 | 87 | 1010.4 |
| 20260903132115 | 75 | 121 | 1.7 | 5.2 | 0.06 | 0.06 | 0.06 | 87 | 1010.5 |
| 20260903131615 | 75 | 193 | 1.7 | 6.1 | 0.06 | 0.06 | 0.06 | 86 | 1010.5 |
| 20260903131115 | 74 | 144 | 3.5 | 6.1 | 0.06 | 0.06 | 0.06 | 86 | 1010.5 |
| 20260903130616 | 74 | 139 | 0.9 | 2.6 | 0.06 | 0.06 | 0.06 | 86 | 1010.6 |
| 20260903125614 | 75 | 162 | 0.9 | 2.6 | 0.06 | 0.06 | 0.06 | 85 | 1010.6 |
| 20260903125113 | 75 | 102 | 0.9 | 2.6 | 0.05 | 0.05 | 0.06 | 85 | 1010.7 |
| 20260903124613 | 75 | 129 | 1.7 | 3.5 | 0.05 | 0.05 | 0.05 | 84 | 1010.9 |
| 20260903123113 | 76 | 279 | 2.6 | 6.1 | 0.02 | 0.02 | 0.02 | 83 | 1011.3 |
| 20260903122113 | 76 | 137 | 0.0 | 1.7 | 0.00 | 0.00 | 0.00 | 82 | 1010.8 |
| 20260903121612 | 76 | 26 | 0.9 | 1.7 | 0.00 | 0.00 | 0.00 | 81 | 1010.8 |
| 20260903121112 | 76 | 9 | 0.9 | 1.7 | 0.00 | 0.00 | 0.00 | 81 | 1010.9 |
| 20260903120613 | 76 | 9 | 0.9 | 2.6 | 0.00 | 0.00 | 0.00 | 81 | 1010.8 |
| 20260903120112 | 76 | 344 | 1.7 | 2.6 | 0.00 | 0.00 | 0.00 | 80 | 1010.8 |
| 20260903115612 | 76 | 325 | 0.0 | 3.5 | 0.00 | 0.00 | 0.00 | 79 | 1010.7 |
| 20260903115112 | 77 | 70 | 1.7 | 3.5 | 0.00 | 0.00 | 0.00 | 79 | 1010.6 |
| 20260903114612 | 77 | 129 | 1.7 | 2.6 | 0.00 | 0.00 | 0.00 | 79 | 1010.6 |
| 20260903114113 | 77 | 105 | 0.9 | 2.6 | 0.00 | 0.00 | 0.00 | 78 | 1010.6 |
| 20260903113611 | 77 | 9 | 0.0 | 3.5 | 0.00 | 0.00 | 0.00 | 78 | 1010.7 |
| 20260903113111 | 77 | 93 | 0.9 | 4.3 | 0.00 | 0.00 | 0.00 | 77 | 1010.5 |
| 20260903112611 | 78 | 111 | 2.6 | 4.3 | 0.00 | 0.00 | 0.00 | 76 | 1010.4 |
| 20260903112111 | 78 | 149 | 1.7 | 3.5 | 0.00 | 0.00 | 0.00 | 76 | 1010.3 |
| 20260903111610 | 78 | 153 | 1.7 | 3.5 | 0.00 | 0.00 | 0.00 | 75 | 1010.2 |
| 20260903111110 | 78 | 146 | 1.7 | 4.3 | 0.00 | 0.00 | 0.00 | 75 | 1010.2 |
| 20260903110610 | 78 | 142 | 2.6 | 6.1 | 0.00 | 0.00 | 0.00 | 75 | 1010.2 |
| 20260903105609 | 78 | 153 | 1.7 | 4.3 | 0.00 | 0.00 | 0.00 | 74 | 1010.2 |
| 20260903105105 | 78 | 178 | 0.9 | 2.6 | 0.00 | 0.00 | 0.00 | 74 | 1010.2 |
| 20260903104605 | 79 | 108 | 0.9 | 3.5 | 0.00 | 0.00 | 0.00 | 73 | 1010.4 |
| 20260903104107 | 79 | 32 | 0.9 | 3.5 | 0.00 | 0.00 | 0.00 | 72 | 1010.3 |
| 20260903102605 | 79 | 93 | 0.9 | 5.2 | 0.00 | 0.00 | 0.00 | 70 | 1010.6 |
| 20260903101604 | 80 | 238 | 3.5 | 10.4 | 0.00 | 0.00 | 0.00 | 67 | 1010.6 |
| 20260903101104 | 81 | 218 | 6.1 | 10.4 | 0.00 | 0.00 | 0.00 | 65 | 1010.6 |
| 20260903100603 | 82 | 194 | 5.2 | 9.6 | 0.00 | 0.00 | 0.00 | 64 | 1010.7 |
| 20260903100103 | 81 | 228 | 4.3 | 7.0 | 0.00 | 0.00 | 0.00 | 63 | 1010.6 |
| 20260903095603 | 81 | 205 | 3.5 | 7.0 | 0.00 | 0.00 | 0.00 | 63 | 1010.4 |
| 20260903094604 | 81 | 188 | 2.6 | 8.7 | 0.00 | 0.00 | 0.00 | 63 | 1010.0 |
| 20260903094105 | 81 | 157 | 3.5 | 8.7 | 0.00 | 0.00 | 0.00 | 63 | 1010.0 |
| 20260903093603 | 81 | 186 | 4.3 | 8.7 | 0.00 | 0.00 | 0.00 | 63 | 1009.9 |
| 20260903092102 | 82 | 178 | 4.3 | 8.7 | 0.00 | 0.00 | 0.00 | 62 | 1010.2 |
| 20260903091602 | 82 | 218 | 3.5 | 8.7 | 0.00 | 0.00 | 0.00 | 62 | 1010.0 |
| 20260903090602 | 82 | 171 | 2.6 | 7.8 | 0.00 | 0.00 | 0.00 | 61 | 1010.2 |
| 20260903085602 | 82 | 178 | 4.3 | 7.8 | 0.00 | 0.00 | 0.00 | 61 | 1010.0 |
| 20260903085102 | 82 | 178 | 5.2 | 7.8 | 0.00 | 0.00 | 0.00 | 61 | 1010.0 |
| 20260903084601 | 82 | 218 | 3.5 | 7.8 | 0.00 | 0.00 | 0.00 | 61 | 1010.2 |
| 20260903083602 | 83 | 134 | 3.5 | 8.7 | 0.00 | 0.00 | 0.00 | 60 | 1010.2 |
| 20260903083101 | 83 | 175 | 3.5 | 7.8 | 0.00 | 0.00 | 0.00 | 60 | 1010.2 |
| 20260903082602 | 83 | 123 | 3.5 | 9.6 | 0.00 | 0.00 | 0.00 | 59 | 1010.2 |
| 20260903081601 | 83 | 207 | 5.2 | 11.3 | 0.00 | 0.00 | 0.00 | 59 | 1010.2 |
| 20260903081101 | 83 | 178 | 4.3 | 11.3 | 0.00 | 0.00 | 0.00 | 59 | 1010.2 |
| 20260903080100 | 83 | 150 | 3.5 | 9.6 | 0.00 | 0.00 | 0.00 | 59 | 1010.2 |
| 20260903075600 | 83 | 168 | 4.3 | 9.6 | 0.00 | 0.00 | 0.00 | 60 | 1010.3 |
| 20260903075101 | 82 | 140 | 3.5 | 8.7 | 0.00 | 0.00 | 0.00 | 61 | 1010.2 |
| 20260903074600 | 82 | 186 | 3.5 | 8.7 | 0.00 | 0.00 | 0.00 | 61 | 1010.2 |
| 20260903074102 | 82 | 134 | 4.3 | 7.8 | 0.00 | 0.00 | 0.00 | 62 | 1010.2 |
| 20260903073600 | 82 | 191 | 3.5 | 7.8 | 0.00 | 0.00 | 0.00 | 62 | 1010.3 |
| 20260903073100 | 82 | 189 | 2.6 | 7.0 | 0.00 | 0.00 | 0.00 | 62 | 1010.0 |
| 20260903072600 | 82 | 111 | 3.5 | 6.1 | 0.00 | 0.00 | 0.00 | 62 | 1010.2 |
| 20260903072100 | 82 | 212 | 2.6 | 7.0 | 0.00 | 0.00 | 0.00 | 62 | 1010.2 |
| 20260903071059 | 83 | 153 | 3.5 | 7.8 | 0.00 | 0.00 | 0.00 | 61 | 1010.3 |
| 20260903070559 | 83 | 221 | 3.5 | 7.0 | 0.00 | 0.00 | 0.00 | 61 | 1010.3 |
| 20260903070100 | 83 | 132 | 3.5 | 8.7 | 0.00 | 0.00 | 0.00 | 61 | 1010.2 |
| 20260903065059 | 83 | 171 | 3.5 | 8.7 | 0.00 | 0.00 | 0.00 | 61 | 1010.3 |
| 20260903064559 | 83 | 184 | 2.6 | 6.1 | 0.00 | 0.00 | 0.00 | 61 | 1010.2 |
| 20260903064100 | 83 | 183 | 3.5 | 9.6 | 0.00 | 0.00 | 0.00 | 60 | 1010.3 |
| 20260903063059 | 83 | 191 | 3.5 | 7.8 | 0.00 | 0.00 | 0.00 | 60 | 1010.2 |
| 20260903062059 | 83 | 128 | 4.3 | 8.7 | 0.00 | 0.00 | 0.00 | 60 | 1010.3 |
| 20260903061559 | 83 | 128 | 4.3 | 9.6 | 0.00 | 0.00 | 0.00 | 60 | 1010.3 |
| 20260903061059 | 84 | 121 | 4.3 | 9.6 | 0.00 | 0.00 | 0.00 | 60 | 1010.3 |
| 20260903060559 | 84 | 141 | 5.2 | 8.7 | 0.00 | 0.00 | 0.00 | 59 | 1010.3 |
| 20260903060058 | 84 | 177 | 4.3 | 10.4 | 0.00 | 0.00 | 0.00 | 59 | 1010.3 |
| 20260903055558 | 84 | 162 | 3.5 | 10.4 | 0.00 | 0.00 | 0.00 | 59 | 1010.4 |
| 20260903055058 | 84 | 157 | 5.2 | 9.6 | 0.00 | 0.00 | 0.00 | 59 | 1010.4 |
| 20260903054559 | 84 | 189 | 3.5 | 7.8 | 0.00 | 0.00 | 0.00 | 59 | 1010.4 |
| 20260903054059 | 84 | 171 | 5.2 | 9.6 | 0.00 | 0.00 | 0.00 | 59 | 1010.3 |
| 20260903053558 | 84 | 182 | 4.3 | 9.6 | 0.00 | 0.00 | 0.00 | 59 | 1010.3 |
| 20260903052057 | 84 | 183 | 5.2 | 8.7 | 0.00 | 0.00 | 0.00 | 59 | 1010.4 |
| 20260903051557 | 84 | 159 | 3.5 | 7.8 | 0.00 | 0.00 | 0.00 | 59 | 1010.4 |
| 20260903051057 | 84 | 146 | 3.5 | 7.8 | 0.00 | 0.00 | 0.00 | 59 | 1010.4 |
| 20260903050557 | 84 | 168 | 3.5 | 9.6 | 0.00 | 0.00 | 0.00 | 59 | 1010.3 |
| 20260903050057 | 84 | 171 | 3.5 | 10.4 | 0.00 | 0.00 | 0.00 | 59 | 1010.4 |
| 20260903045557 | 84 | 201 | 4.3 | 10.4 | 0.00 | 0.00 | 0.00 | 59 | 1010.3 |
| 20260903045057 | 84 | 178 | 3.5 | 7.8 | 0.00 | 0.00 | 0.00 | 58 | 1010.4 |
| 20260903044558 | 84 | 184 | 4.3 | 12.2 | 0.00 | 0.00 | 0.00 | 58 | 1010.4 |
| 20260903044057 | 84 | 177 | 3.5 | 12.2 | 0.00 | 0.00 | 0.00 | 58 | 1010.4 |
| 20260903043056 | 84 | 189 | 3.5 | 8.7 | 0.00 | 0.00 | 0.00 | 58 | 1010.4 |
| 20260903042557 | 84 | 186 | 4.3 | 8.7 | 0.00 | 0.00 | 0.00 | 58 | 1010.3 |
| 20260903042056 | 84 | 160 | 3.5 | 8.7 | 0.00 | 0.00 | 0.00 | 59 | 1010.4 |
| 20260903041556 | 84 | 123 | 4.3 | 8.7 | 0.00 | 0.00 | 0.00 | 58 | 1010.4 |
| 20260903041056 | 84 | 160 | 3.5 | 8.7 | 0.00 | 0.00 | 0.00 | 58 | 1010.4 |
| 20260903040556 | 85 | 165 | 4.3 | 8.7 | 0.00 | 0.00 | 0.00 | 58 | 1010.4 |
| 20260903040055 | 85 | 135 | 3.5 | 7.0 | 0.00 | 0.00 | 0.00 | 58 | 1010.3 |
| 20260903035555 | 85 | 205 | 3.5 | 7.0 | 0.00 | 0.00 | 0.00 | 58 | 1010.4 |
| 20260903035056 | 85 | 153 | 3.5 | 7.0 | 0.00 | 0.00 | 0.00 | 58 | 1010.3 |
| 20260903033556 | 85 | 146 | 4.3 | 8.7 | 0.00 | 0.00 | 0.00 | 58 | 1010.4 |
| 20260903033055 | 85 | 156 | 3.5 | 7.0 | 0.00 | 0.00 | 0.00 | 58 | 1010.3 |
| 20260903032056 | 85 | 175 | 2.6 | 6.1 | 0.00 | 0.00 | 0.00 | 58 | 1010.2 |
| 20260903031555 | 85 | 178 | 2.6 | 7.0 | 0.00 | 0.00 | 0.00 | 57 | 1010.2 |
| 20260903031056 | 85 | 178 | 1.7 | 7.0 | 0.00 | 0.00 | 0.00 | 57 | 1010.3 |
| 20260903030555 | 86 | 175 | 2.6 | 6.1 | 0.00 | 0.00 | 0.00 | 57 | 1010.3 |